JAL202 RJTT-RJFK

Flight info

Callsign JAL202
Flight time N/A
Altitude 38000
Route +LAXAS Y56 TOHME Y54 TURFY Y24 SUC Y757 SPICA
Aircraft A35K/H-SDE2E3GHIJ3J4J5LM1ORWXY/LB1D1

Departure

Time 2026-02-22 07:45
Airport Tokyo Haneda International Airport (RJTT)

Arrival

Time N/A
Airport Kagoshima Airport (RJFK)
Time Latitude Longitude Altitude Speed Heading
2026-02-22 07:37 35.54895 139.78062 63 ft 0 kts 335°
2026-02-22 07:40 35.54913 139.78054 66 ft 8 kts 341°
2026-02-22 07:41 35.54995 139.78009 69 ft 15 kts 333°
2026-02-22 07:41 35.55088 139.77940 63 ft 17 kts 327°
2026-02-22 07:41 35.55192 139.77862 63 ft 18 kts 331°
2026-02-22 07:41 35.55292 139.77794 66 ft 17 kts 330°
2026-02-22 07:42 35.55398 139.77718 69 ft 17 kts 328°
2026-02-22 07:42 35.55628 139.77552 65 ft 20 kts 330°
2026-02-22 07:42 35.55751 139.77466 63 ft 21 kts 330°
2026-02-22 07:43 35.55843 139.77360 70 ft 10 kts 268°
2026-02-22 07:43 35.55804 139.77297 65 ft 10 kts 212°
2026-02-22 07:43 35.55735 139.77244 69 ft 13 kts 213°
2026-02-22 07:43 35.55656 139.77182 68 ft 14 kts 201°
2026-02-22 07:44 35.55557 139.77223 66 ft 22 kts 150°
2026-02-22 07:44 35.55290 139.77412 66 ft 74 kts 150°
2026-02-22 07:44 35.54641 139.77869 63 ft 140 kts 149°
2026-02-22 07:44 35.53656 139.78573 301 ft 175 kts 150°
2026-02-22 07:45 35.52666 139.79353 1184 ft 164 kts 150°
2026-02-22 07:45 35.51720 139.80088 1884 ft 160 kts 153°
2026-02-22 07:45 35.50689 139.80786 2151 ft 178 kts 155°
2026-02-22 07:45 35.49537 139.81546 2403 ft 198 kts 155°
2026-02-22 07:46 35.48269 139.82406 2679 ft 218 kts 154°
2026-02-22 07:46 35.46872 139.83375 2910 ft 242 kts 153°
2026-02-22 07:46 35.45352 139.84443 3281 ft 260 kts 153°
2026-02-22 07:46 35.43663 139.85253 3841 ft 262 kts 175°
2026-02-22 07:47 35.41832 139.85391 4524 ft 263 kts 184°
2026-02-22 07:47 35.40039 139.84991 5189 ft 262 kts 205°
2026-02-22 07:47 35.38591 139.83743 5848 ft 259 kts 229°
2026-02-22 07:47 35.37444 139.82037 6548 ft 261 kts 234°
2026-02-22 07:48 35.36361 139.80235 7236 ft 264 kts 236°
2026-02-22 07:48 35.35280 139.78401 7915 ft 266 kts 236°
2026-02-22 07:48 35.34690 139.77397 8279 ft 268 kts 236°
2026-02-22 07:48 35.33592 139.75532 8950 ft 271 kts 236°
2026-02-22 07:49 35.32481 139.73647 9606 ft 274 kts 236°
2026-02-22 07:49 35.31357 139.71743 10241 ft 280 kts 235°
2026-02-22 07:49 35.30185 139.69758 10564 ft 295 kts 235°
2026-02-22 07:49 35.28953 139.67671 10873 ft 311 kts 236°
2026-02-22 07:50 35.27660 139.65475 11199 ft 325 kts 236°
2026-02-22 07:50 35.26315 139.63184 11513 ft 338 kts 236°
2026-02-22 07:50 35.24917 139.60812 11827 ft 349 kts 235°
2026-02-22 07:50 35.23474 139.58375 12245 ft 356 kts 235°
2026-02-22 07:51 35.22028 139.55933 12737 ft 360 kts 235°
2026-02-22 07:51 35.20547 139.53438 13242 ft 364 kts 235°
2026-02-22 07:51 35.19052 139.50920 13737 ft 367 kts 235°
2026-02-22 07:51 35.17546 139.48388 14222 ft 370 kts 235°
2026-02-22 07:52 35.16025 139.45831 14714 ft 373 kts 235°
2026-02-22 07:52 35.14495 139.43262 15201 ft 376 kts 235°
2026-02-22 07:52 35.12947 139.40664 15700 ft 379 kts 235°
2026-02-22 07:52 35.11389 139.38051 16167 ft 382 kts 235°
2026-02-22 07:53 35.09816 139.35415 16647 ft 384 kts 235°
2026-02-22 07:53 35.08234 139.32766 17111 ft 387 kts 235°
2026-02-22 07:53 35.06643 139.30105 17561 ft 390 kts 235°
2026-02-22 07:53 35.05060 139.27456 17993 ft 392 kts 235°
2026-02-22 07:54 35.03593 139.24637 18419 ft 394 kts 244°
2026-02-22 07:54 35.02628 139.21540 19001 ft 396 kts 253°
2026-02-22 07:54 35.01950 139.18286 19775 ft 385 kts 257°
2026-02-22 07:54 35.01416 139.15105 20462 ft 382 kts 258°
2026-02-22 07:55 35.00924 139.11904 20805 ft 386 kts 259°
2026-02-22 07:55 35.00433 139.08663 21178 ft 390 kts 259°
2026-02-22 07:55 34.99928 139.05410 21583 ft 392 kts 258°
2026-02-22 07:55 34.99402 139.02138 21971 ft 393 kts 258°
2026-02-22 07:56 34.98932 138.98844 22379 ft 396 kts 262°
2026-02-22 07:56 34.98656 138.95531 22790 ft 398 kts 264°
2026-02-22 07:56 34.98434 138.92153 23191 ft 400 kts 265°
2026-02-22 07:56 34.98246 138.88765 23525 ft 403 kts 265°
2026-02-22 07:57 34.98074 138.85346 23868 ft 405 kts 266°
2026-02-22 07:57 34.97906 138.81912 24222 ft 406 kts 266°
2026-02-22 07:57 34.97735 138.78472 24563 ft 408 kts 266°
2026-02-22 07:57 34.97559 138.75017 24902 ft 409 kts 266°
2026-02-22 07:58 34.97378 138.71547 25235 ft 410 kts 265°
2026-02-22 07:58 34.97194 138.68076 25575 ft 411 kts 265°
2026-02-22 07:58 34.97009 138.64623 25912 ft 413 kts 265°
2026-02-22 07:58 34.96819 138.61127 26258 ft 414 kts 265°
2026-02-22 07:59 34.96627 138.57621 26615 ft 416 kts 266°
2026-02-22 07:59 34.96434 138.54098 26964 ft 417 kts 266°
2026-02-22 07:59 34.96239 138.50554 27333 ft 419 kts 266°
2026-02-22 07:59 34.96042 138.47002 27694 ft 421 kts 266°
2026-02-22 08:00 34.95843 138.43434 28067 ft 423 kts 266°
2026-02-22 08:00 34.95642 138.39844 28452 ft 425 kts 266°
2026-02-22 08:00 34.95440 138.36245 28827 ft 427 kts 266°
2026-02-22 08:00 34.95234 138.32623 29192 ft 429 kts 266°
2026-02-22 08:01 34.95028 138.28994 29590 ft 431 kts 266°
2026-02-22 08:01 34.94821 138.25358 29975 ft 433 kts 266°
2026-02-22 08:01 34.94609 138.21668 30252 ft 436 kts 266°
2026-02-22 08:01 34.94395 138.17973 30630 ft 437 kts 266°
2026-02-22 08:02 34.94184 138.14337 31016 ft 437 kts 266°
2026-02-22 08:02 34.93966 138.10588 31411 ft 438 kts 266°
2026-02-22 08:02 34.93750 138.06876 31746 ft 439 kts 266°
2026-02-22 08:02 34.93532 138.03154 32057 ft 440 kts 266°
2026-02-22 08:03 34.93315 137.99472 32641 ft 435 kts 266°
2026-02-22 08:03 34.93098 137.95834 33259 ft 431 kts 266°
2026-02-22 08:03 34.92882 137.92213 33752 ft 428 kts 266°
2026-02-22 08:03 34.92663 137.88600 34213 ft 426 kts 266°
2026-02-22 08:04 34.92444 137.85011 34609 ft 424 kts 266°
2026-02-22 08:04 34.92225 137.81438 35022 ft 422 kts 266°
2026-02-22 08:04 34.92005 137.77882 35419 ft 420 kts 266°
2026-02-22 08:04 34.91789 137.74341 35811 ft 418 kts 266°
2026-02-22 08:05 34.91551 137.70828 36212 ft 416 kts 264°
2026-02-22 08:05 34.91074 137.67356 36590 ft 415 kts 258°
2026-02-22 08:05 34.90284 137.63976 36936 ft 416 kts 254°
2026-02-22 08:05 34.89356 137.60644 37306 ft 415 kts 253°
2026-02-22 08:06 34.88379 137.57347 37737 ft 413 kts 252°
2026-02-22 08:06 34.87382 137.54073 38137 ft 411 kts 252°
2026-02-22 08:06 34.86384 137.50819 38502 ft 409 kts 252°
2026-02-22 08:06 34.85393 137.47576 38799 ft 409 kts 253°
2026-02-22 08:07 34.84429 137.44326 39071 ft 407 kts 253°
2026-02-22 08:07 34.83501 137.41115 39330 ft 406 kts 253°
2026-02-22 08:07 34.82574 137.37871 39577 ft 405 kts 253°
2026-02-22 08:07 34.81654 137.34634 39816 ft 404 kts 253°
2026-02-22 08:08 34.80735 137.31405 40021 ft 404 kts 253°
2026-02-22 08:08 34.79808 137.28157 40070 ft 407 kts 253°
2026-02-22 08:08 34.77925 137.21584 40072 ft 415 kts 253°
2026-02-22 08:09 34.76003 137.14915 40059 ft 419 kts 253°
2026-02-22 08:09 34.74067 137.08233 40060 ft 419 kts 253°
2026-02-22 08:10 34.72145 137.01599 40055 ft 418 kts 253°
2026-02-22 08:10 34.69775 136.95124 40050 ft 423 kts 244°
2026-02-22 08:11 34.66339 136.89246 40052 ft 428 kts 238°
2026-02-22 08:11 34.62647 136.83572 40052 ft 429 kts 237°
2026-02-22 08:12 34.58927 136.77921 40054 ft 429 kts 237°
2026-02-22 08:12 34.55225 136.72251 40059 ft 428 kts 237°
2026-02-22 08:13 34.51555 136.66606 40060 ft 428 kts 237°
2026-02-22 08:13 34.47866 136.60932 40053 ft 428 kts 237°
2026-02-22 08:14 34.44177 136.55268 40057 ft 428 kts 237°
2026-02-22 08:14 34.40488 136.49615 40055 ft 428 kts 237°
2026-02-22 08:15 34.36796 136.43969 40054 ft 428 kts 237°
2026-02-22 08:15 34.33092 136.38314 40051 ft 428 kts 237°
2026-02-22 08:16 34.29394 136.32674 40066 ft 428 kts 237°
2026-02-22 08:16 34.25694 136.27037 40059 ft 427 kts 237°
2026-02-22 08:17 34.22014 136.21449 40060 ft 427 kts 237°
2026-02-22 08:17 34.18320 136.15830 40068 ft 427 kts 237°
2026-02-22 08:18 34.15218 136.11123 40064 ft 428 kts 237°
2026-02-22 08:18 34.11518 136.05554 40063 ft 427 kts 237°
2026-02-22 08:19 34.07810 135.99957 40077 ft 427 kts 237°
2026-02-22 08:19 34.04102 135.94355 40067 ft 427 kts 237°
2026-02-22 08:20 34.00394 135.88771 40079 ft 426 kts 237°
2026-02-22 08:20 33.96680 135.83180 40070 ft 426 kts 237°
2026-02-22 08:21 33.91133 135.74854 40068 ft 426 kts 237°
2026-02-22 08:22 33.87411 135.69288 40069 ft 426 kts 237°
2026-02-22 08:22 33.83692 135.63722 40065 ft 427 kts 237°
2026-02-22 08:23 33.80029 135.58265 40060 ft 427 kts 237°
2026-02-22 08:23 33.76305 135.52703 40056 ft 427 kts 237°
2026-02-22 08:24 33.72572 135.47140 40048 ft 427 kts 237°
2026-02-22 08:24 33.68840 135.41590 40047 ft 427 kts 237°
2026-02-22 08:25 33.65103 135.36041 40046 ft 427 kts 237°
2026-02-22 08:25 33.61360 135.30494 40049 ft 427 kts 237°
2026-02-22 08:26 33.57642 135.24994 40052 ft 427 kts 237°
2026-02-22 08:26 33.53908 135.19477 40061 ft 426 kts 237°
2026-02-22 08:27 33.50171 135.13966 40064 ft 426 kts 237°
2026-02-22 08:27 33.46426 135.08448 40071 ft 425 kts 237°
2026-02-22 08:28 33.42718 135.02995 40077 ft 425 kts 237°
2026-02-22 08:28 33.38989 134.97516 40074 ft 424 kts 237°
2026-02-22 08:29 33.35281 134.92068 40067 ft 424 kts 237°
2026-02-22 08:29 33.31542 134.86582 40060 ft 424 kts 237°
2026-02-22 08:30 33.27836 134.81152 40062 ft 423 kts 237°
2026-02-22 08:30 33.24117 134.75713 40061 ft 423 kts 237°
2026-02-22 08:31 33.20385 134.70262 40064 ft 423 kts 237°
2026-02-22 08:31 33.16950 134.64604 40077 ft 416 kts 245°
2026-02-22 08:32 33.14746 134.58343 40053 ft 411 kts 255°
2026-02-22 08:32 33.13119 134.51773 40062 ft 410 kts 256°
2026-02-22 08:33 33.11579 134.45287 40060 ft 411 kts 256°
2026-02-22 08:33 33.09991 134.38737 40062 ft 411 kts 256°
2026-02-22 08:34 33.08380 134.32199 40060 ft 411 kts 256°
2026-02-22 08:34 33.06752 134.25636 40061 ft 411 kts 256°
2026-02-22 08:35 33.05145 134.19095 40058 ft 411 kts 256°
2026-02-22 08:35 33.03560 134.12536 40058 ft 411 kts 256°
2026-02-22 08:36 33.01980 134.06012 40054 ft 411 kts 256°
2026-02-22 08:36 33.00388 133.99462 40060 ft 411 kts 256°
2026-02-22 08:37 32.98792 133.92921 40055 ft 411 kts 256°